Ciudad Victoria, Mexico

10:02 PM CST on March 28, 2017 (GMT -0600)
Ciudad Victoria

Weather History for MMCV - October, 2012

Change the Weather History Date:

Thursday, October 11, 2012

  Actual Average Record
Temperature  
Mean Temperature 82 °F -  
Max Temperature 97 °F 82 °F 97 °F (2012)
Min Temperature 67 °F 62 °F 55 °F (2000)
Cooling Degree Days 17    
Growing Degree Days 32 (Base 50)    
Moisture  
Dew Point 66 °F    
Average Humidity 56    
Maximum Humidity 100    
Minimum Humidity 15    
Precipitation  
Precipitation 0.00 in - - ()
Sea Level Pressure  
Sea Level Pressure 30.04 in    
Wind  
Wind Speed 6 mph ()    
Max Wind Speed 16 mph    
Max Gust Speed -    
Visibility 8.1 miles    
Events      
Averages and records for this station are not official NWS values.
T = Trace of Precipitation, MM = Missing Value Source: Averaged Metar Reports

Daily Weather History Graph

Daily Weather History Graph

Search for Another Location

Airport or City:

Trip Planner

Search our weather history database for the weather conditions in past years. The results will help you decide how hot, cold, wet, or windy it might be!

Date:

Astronomy

Oct. 11, 2012 Rise Set
Actual Time 7:31 AM CDT 7:12 PM CDT
Civil Twilight 7:08 AM CDT 7:35 PM CDT
Nautical Twilight 6:42 AM CDT 8:01 PM CDT
Astronomical Twilight 6:16 AM CDT 8:28 PM CDT
Moon 3:37 AM CDT (10/11) 4:28 PM CDT (10/11)
Length of Visible Light 12h 26m
Length of Day
11h 41m
Waning Crescent, 18% of the Moon is Illuminated
Oct 11
Waning Crescent
Oct 15
New
Oct 21
First Quarter
Oct 29
Full
Nov 6
Last Quarter

Hourly Weather History & Observations

Time (CDT) Temp. Heat Index Dew Point Humidity Pressure Visibility Wind Dir Wind Speed Gust Speed Precip Events Conditions
12:50 AM 79 °F - 75 °F 83% 30.06 in 4 mi South 2.2 mph - -  
3:50 AM 72 °F - 70 °F 91% 30.03 in 4 mi Calm Calm - -  
6:00 AM 75.2 °F - 68.0 °F 78% 30.03 in 6.0 mi SE 8.1 mph - N/A   Clear
6:40 AM 75.2 °F - 68.0 °F 78% 30.00 in 6.0 mi South 6.9 mph - N/A   Clear
6:50 AM 68 °F - 68 °F 100% 30.06 in 4 mi Calm Calm - -  
7:42 AM 75.2 °F - 68.0 °F 78% 30.04 in 6.0 mi ESE 9.2 mph - N/A   Clear
8:44 AM 77.0 °F - 69.8 °F 78% 30.07 in 7.0 mi SE 10.4 mph - N/A   Clear
9:42 AM 80.6 °F 83.2 °F 68.0 °F 65% 30.07 in 7.0 mi SE 8.1 mph - N/A   Clear
9:45 AM 80 °F - 74 °F 76% 30.10 in 6 mi Calm Calm - -  
10:40 AM 86.0 °F 88.2 °F 66.2 °F 51% 30.09 in 8.0 mi SSE 16.1 mph - N/A   Clear
11:41 AM 87.8 °F 89.4 °F 64.4 °F 46% 30.09 in 8.0 mi SSE 12.7 mph - N/A   Partly Cloudy
12:41 PM 91.4 °F 92.1 °F 62.6 °F 38% 30.08 in 10.0 mi South 6.9 mph - N/A   Partly Cloudy
12:45 PM 95 °F - 52 °F 15% 30.08 in 12 mi East 13.4 mph - -   Partly Cloudy
1:47 PM 93.2 °F 94.1 °F 62.6 °F 36% 30.03 in 12.0 mi WSW 5.8 mph - N/A   Scattered Clouds
2:46 PM 93.2 °F 93.3 °F 60.8 °F 34% 30.01 in 12.0 mi ESE 8.1 mph - N/A   Scattered Clouds
3:46 PM 95.0 °F 95.2 °F 60.8 °F 32% 29.97 in 12.0 mi SSE 10.4 mph - N/A   Partly Cloudy
3:50 PM 96 °F - 68 °F 30% 30.00 in 6 mi ESE 6.7 mph - -   Partly Cloudy
4:45 PM 96.8 °F 97.1 °F 60.8 °F 30% 29.98 in 12.0 mi ESE 12.7 mph - N/A   Scattered Clouds
5:45 PM 89.6 °F 91.1 °F 64.4 °F 43% 29.98 in 12.0 mi SE 10.4 mph - N/A   Scattered Clouds
6:46 PM 87.8 °F 88.5 °F 62.6 °F 43% 30.01 in 10.0 mi SE 12.7 mph - N/A   Scattered Clouds
6:50 PM 89 °F - 67 °F 39% 29.99 in 6 mi SE 6.7 mph - -   Partly Cloudy
7:40 PM 84.2 °F 85.6 °F 64.4 °F 51% 30.01 in 10.0 mi SE 11.5 mph - N/A   Scattered Clouds
8:46 PM 80.6 °F 83.2 °F 68.0 °F 65% 30.04 in 10.0 mi South 5.8 mph - N/A   Clear
9:45 PM 81 °F - 71 °F 65% 30.05 in 4 mi ESE 2.2 mph - -